This demonstration page uses our WeatherBlox Daily Observations layout. Learn more.

Left ArrowRight Arrow

Hourly Observations for July 18, 2017

Temp ( °F °C ) Dew Point ( °F °C ) Humidity (%) Winds ( mph kmh ) Pressure ( in mb ) Visibility ( mi km ) Precip ( " mm )
12:53 am 00:53 Mostly Cloudy 69 20.6 65 18.3 87 87 SW 8 13 29.91 1013 10 16 0.00 0.00
1:53 am 01:53 Mostly Clear 70 21.1 65 18.3 84 84 S 8 13 29.91 1013 10 16 0.00 0.00
2:53 am 02:53 Partly Cloudy with Light Rain 71 21.7 65 18.3 81 81 SSW 10 17 29.91 1013 10 16 0.01 0.25
3:09 am 03:09 Partly Cloudy with Nearby Thunderstorms 72 22 64 18 78 78 S 14 22 29.91 1013 10 16 0.00 0.00
3:30 am 03:30 Partly Cloudy with Thunderstorms 72 22 66 19 83 83 S 10 17 29.91 1013 9 14 0.00 0.00
3:53 am 03:53 Mostly Cloudy with Thunderstorms 71 21.7 66 18.9 84 84 N 3 6 29.94 1014 6 10 0.06 1.52
4:29 am 04:29 Cloudy with Strong Thunderstorms 69 20.6 67 19.4 93 93 N 9 15 29.97 1015 2 3 0.22 5.59
4:36 am 04:36 Cloudy with Strong Thunderstorms 70 21 66 19 88 88 NNE 10 17 29.97 1015 1 2 0.00 0.00
5:02 am 05:02 Cloudy with Strong Thunderstorms 68 20 66 19 94 94 SSE 6 9 29.94 1014 2 2 0.00 0.00
5:07 am 05:07 Cloudy with Thunderstorms 68 20 67 19.4 96 96 S 6 9 29.94 1014 3 5 0.12 3.05
5:17 am 05:17 Cloudy with Strong Thunderstorms 68 20 66 19 94 94 SSE 10 17 29.94 1014 3 5 0.00 0.00
5:20 am 05:20 Cloudy with Nearby Thunderstorms 68 20 66 19 94 94 SE 13 20 29.94 1014 3 4 0.00 0.00
5:34 am 05:34 Cloudy with Nearby Thunderstorms 70 21 66 19 88 88 S 12 19 29.94 1014 3 5 0.00 0.00
5:53 am 05:53 Cloudy with Nearby Thunderstorms 68 20 66 18.9 93 93 SE 9 15 29.98 1015 10 16 0.37 9.40
6:16 am 06:16 Cloudy 68 20 66 19 94 94 E 10 17 29.97 1015 10 16 0.00 0.00
6:53 am 06:53 Partly Cloudy 69 20.6 66 18.9 90 90 SE 14 22 29.97 1015 10 16 0.00 0.00
7:53 am 07:53 Sunny 69 20.6 65 18.3 87 87 SSE 9 15 29.95 1014 10 16 0.00 0.00
8:53 am 08:53 Sunny 73 22.8 66 18.9 79 79 SSE 15 24 29.95 1014 10 16 0.00 0.00
9:53 am 09:53 Mostly Sunny 77 25 69 20.6 77 77 SSE 17 28 29.96 1015 10 16 0.00 0.00
10:53 am 10:53 Partly Cloudy 80 26.7 70 21.1 71 71 S 10 17 29.96 1014 10 16 0.00 0.00
11:53 am 11:53 Mostly Cloudy 82 27.8 71 21.7 69 69 S 14 22 29.94 1014 10 16 0.00 0.00
12:53 pm 12:53 Mostly Cloudy 84 28.9 72 22.2 67 67 SSW 9 15 29.94 1014 10 16 0.00 0.00
1:32 pm 13:32 Mostly Cloudy 84 29 72 22 66 66 S 8 13 29.88 1012 10 16 0.00 0.00
1:53 pm 13:53 Partly Cloudy 86 30 73 22.8 65 65 SW 5 7 29.95 1014 10 16 0.00 0.00
2:53 pm 14:53 Partly Cloudy 87 30.6 71 21.7 59 59 S 3 6 29.95 1014 10 16 0.00 0.00
3:53 pm 15:53 Sunny 90 32.2 72 22.2 56 56 Calm 29.94 1014 10 16 0.00 0.00
4:53 pm 16:53 Partly Cloudy 89 31.7 74 23.3 61 61 ENE 8 13 29.94 1014 10 16 0.00 0.00
5:53 pm 17:53 Sunny 87 30.6 76 24.4 70 70 ENE 9 15 29.94 1014 10 16 0.00 0.00
6:53 pm 18:53 Sunny 86 30 76 24.4 72 72 ENE 12 19 29.93 1014 10 16 0.00 0.00
7:53 pm 19:53 Sunny 85 29.4 77 25 77 77 NE 9 15 29.94 1014 10 16 0.00 0.00
8:53 pm 20:53 Sunny 82 27.8 77 25 85 85 ENE 7 11 29.95 1014 10 16 0.00 0.00
9:53 pm 21:53 Clear 81 27.2 76 24.4 85 85 ENE 8 13 29.96 1015 9 14 0.00 0.00
10:53 pm 22:53 Clear 80 26.7 76 24.4 87 87 E 7 11 29.97 1015 10 16 0.00 0.00
11:53 pm 23:53 Clear 80 26.7 73 22.8 79 79 ESE 8 13 29.96 1015 10 16 0.00 0.00

Powered by AerisWeather